Temperature
22 22 21 21 22 22 23 24 25 25 25 25 25 25 24 23 22 20 19 19 19 18 18 18 18 18 18 18 18 18 18 18 18 18 18 18 17 17 17 17 18 18 17 17 17 17 18 18 18
22 21 22 22 22 23 23 24 24 25 25 25 25 25 24 22 21 20 19 19 18 18 18 18 18 18 18 17 18 17 18 18 17 17 17 17 17 17 17 17 17 17 17 17 17 17 17 17 17
22 22 23 23 23 23 24 24 25 25 25 25 25 24 23 22 21 19 19 19 19 18 18 18 18 17 17 17 17 17 17 17 17 17 17 17 17 17 17 17 17 17 17 17 17 17 17 17 17
22 23 24 24 24 25 25 25 25 25 25 25 25 24 22 21 21 20 19 19 19 18 18 18 18 18 17 17 17 17 17 17 17 17 17 17 17 17 17 17 17 17 17 17 17 17 17 17 17
23 24 24 24 24 25 26 26 26 26 25 25 24 23 21 21 20 20 20 20 19 18 18 18 18 18 18 17 17 17 17 17 17 17 17 17 17 17 17 17 17 17 17 17 17 17 17 17 17
24 25 24 23 24 26 27 26 26 26 26 25 24 23 21 20 20 20 20 20 19 19 18 18 18 18 18 17 17 17 17 17 17 17 17 17 17 17 17 17 17 17 17 17 17 17 17 17 17
24 24 24 24 24 25 27 27 26 26 26 25 24 23 21 20 20 20 20 20 19 19 19 18 18 18 18 17 17 17 17 17 17 17 17 17 17 17 17 17 17 17 17 17 17 17 17 17 17
24 24 24 24 25 25 26 26 26 26 25 25 24 23 22 21 20 20 20 20 20 19 19 18 18 18 18 17 17 17 17 17 17 17 17 17 17 17 16 17 17 16 17 17 16 16 16 16 16
25 24 23 24 25 25 26 26 26 25 25 25 24 23 22 21 21 20 20 20 20 19 19 19 18 18 17 17 17 17 17 17 17 17 17 16 16 16 16 16 16 16 16 16 16 16 16 16 16
25 23 24 25 26 26 26 26 26 25 25 24 24 23 22 21 21 20 20 20 20 20 19 19 19 18 18 17 17 17 17 17 17 17 17 16 16 16 16 16 16 16 16 16 16 16 16 16 16
26 24 25 26 26 26 26 26 26 25 24 24 23 22 22 21 21 21 21 20 20 20 19 19 19 18 18 18 17 17 17 17 17 17 17 16 16 16 16 16 16 16 16 16 16 16 16 16 16
26 26 26 26 26 26 26 25 25 25 25 24 24 23 22 22 21 21 21 20 20 20 19 19 19 19 18 18 17 17 17 17 17 17 17 17 16 16 16 16 16 16 16 16 16 16 16 16 16
26 26 26 26 26 26 25 25 25 25 24 24 24 23 22 22 22 21 21 21 20 19 19 19 19 19 19 18 18 17 17 17 17 17 16 16 16 16 16 16 16 16 16 16 16 16 16 16 16
26 26 26 26 26 26 25 25 25 25 24 24 24 23 22 22 22 22 21 21 20 20 19 19 19 19 18 18 18 17 17 17 17 17 16 16 16 16 16 16 16 16 16 16 16 16 15 15 15
26 25 25 26 26 26 25 24 25 25 24 24 24 23 23 22 22 22 21 21 20 20 19 19 19 18 18 18 18 17 17 17 17 17 17 16 16 16 16 16 16 16 15 15 15 15 15 15 15
26 25 24 25 26 26 25 23 25 25 25 24 24 23 23 22 22 22 21 21 21 20 19 19 18 18 18 18 18 17 17 17 17 17 17 16 16 16 16 16 16 16 15 15 15 15 15 15 15
25 24 24 25 26 26 25 24 25 25 25 24 24 24 23 22 22 22 22 21 21 20 19 19 18 18 18 18 17 17 17 17 17 17 16 16 16 16 16 16 16 15 15 15 15 15 15 15 15
24 24 25 25 26 26 25 24 25 25 25 25 25 24 23 23 22 22 22 21 21 20 19 19 18 18 18 18 17 17 17 17 17 16 16 16 16 16 16 15 15 15 15 15 15 15 15 15 15
25 25 25 25 26 26 25 25 25 26 25 25 25 25 24 23 23 22 22 21 21 20 20 19 19 18 18 17 17 17 17 16 16 16 16 16 16 16 16 15 15 15 15 15 15 15 15 15 14
25 25 25 25 26 26 25 25 26 26 25 25 25 25 24 24 23 22 22 21 21 20 20 19 19 18 18 18 17 17 17 16 16 16 16 16 16 16 15 15 15 15 15 15 15 14 14 14 14
25 25 25 25 26 26 25 24 25 26 26 26 25 25 25 24 23 22 22 21 20 20 20 19 19 18 18 18 17 17 16 16 16 16 16 16 15 15 15 15 15 15 15 15 14 14 14 14 14
24 26 25 25 24 24 25 23 25 25 25 25 25 25 25 24 23 22 22 21 20 20 19 19 19 18 18 17 17 17 16 16 16 16 16 15 15 15 15 15 15 15 14 14 14 14 14 14 14
25 26 25 25 24 24 25 24 24 25 25 25 25 25 24 24 23 22 21 21 20 20 19 19 19 18 18 17 17 17 16 16 16 16 16 15 15 15 15 15 15 14 14 14 14 14 14 14 14
25 25 25 25 24 23 24 24 23 24 25 25 25 24 24 24 23 22 21 21 20 20 19 19 18 18 18 17 17 17 16 16 16 16 15 15 15 15 15 15 15 14 14 14 14 14 14 14 14
25 23 22 22 22 23 25 24 24 25 25 25 25 24 23 23 22 22 21 21 20 19 19 18 18 18 18 17 17 17 16 16 16 16 16 15 15 15 15 15 14 14 14 14 14 14 13 13 13
24 24 22 21 22 23 25 24 24 25 25 25 24 24 23 22 22 21 21 20 20 19 19 18 18 18 17 17 17 17 16 16 16 16 16 16 15 15 15 15 14 14 14 14 14 13 13 13 13
24 24 24 23 23 22 24 24 24 25 24 24 24 23 23 22 21 21 20 20 19 19 18 18 18 17 17 17 17 17 16 16 16 16 16 15 15 15 15 15 14 14 14 14 14 13 13 13 13
24 24 23 22 21 21 23 23 22 23 23 24 23 23 22 21 21 20 20 19 19 18 18 18 17 17 17 17 17 16 16 16 16 16 15 15 15 15 15 14 14 14 14 13 13 13 13 13 13
24 23 23 22 22 21 21 22 24 23 23 23 23 22 21 21 20 20 19 19 18 18 18 18 17 17 17 17 16 16 16 16 16 15 15 15 15 15 15 14 14 14 14 13 13 13 13 13 12
24 23 23 21 21 22 21 21 24 23 23 22 22 21 21 20 20 19 18 18 18 17 17 17 17 17 16 16 16 16 16 16 15 15 15 15 14 14 14 14 14 14 13 13 13 13 13 12 12
Wind_Speed
8 9 7 2 2 1 4 5 6 7 6 8 8 8 11 12 9 8 4 7 10 11 12 12 12 12 13 12 13 13 13 13 13 14 14 14 14 14 13 13 13 12 12 12 12 12 12 11 10
9 7 4 3 2 1 4 5 8 8 7 6 7 9 11 11 10 8 5 8 10 11 12 12 12 13 13 13 13 13 13 13 14 14 14 14 14 14 14 14 15 14 14 14 13 12 12 11 11
10 7 4 3 1 3 5 6 7 7 6 5 7 9 8 7 9 6 7 8 11 12 14 13 12 12 13 13 13 13 13 13 14 14 14 14 14 14 14 14 14 15 15 14 13 13 12 11 11
5 3 3 1 4 6 6 7 7 8 6 6 7 8 9 7 7 9 8 9 12 12 14 12 12 12 13 13 13 13 13 13 13 13 13 14 14 15 15 14 15 15 15 14 14 13 12 12 11
4 3 2 2 5 5 6 7 6 7 7 7 8 11 10 10 11 10 7 8 11 12 13 13 12 12 13 13 13 13 13 13 13 13 13 13 14 14 14 14 14 14 15 14 13 13 13 13 12
3 3 1 2 5 4 5 6 5 7 8 8 9 10 8 9 9 8 7 7 10 12 13 14 13 13 13 13 13 12 12 12 12 12 12 12 12 13 14 15 14 14 15 15 14 13 12 12 12
3 2 1 3 4 4 5 4 6 6 6 6 7 8 8 9 8 8 7 8 9 10 11 12 13 12 13 13 12 11 11 11 10 10 10 10 11 12 14 15 14 14 14 14 13 12 12 12 12
4 2 0 1 3 4 5 4 6 5 5 6 5 6 8 10 9 8 7 7 8 8 8 9 11 12 12 11 11 10 9 9 8 7 7 8 9 11 13 13 13 13 12 12 11 10 10 10 10
4 1 1 1 2 3 5 4 4 5 5 6 8 9 11 13 10 8 7 6 7 7 6 8 8 9 11 11 11 10 8 7 7 6 5 5 7 9 10 12 11 10 10 9 8 8 8 8 8
2 0 0 0 1 3 4 3 3 4 4 5 9 11 13 11 9 8 7 7 7 6 6 7 7 7 8 8 9 8 7 6 5 5 5 3 6 8 10 10 9 7 7 6 5 5 5 5 4
2 1 1 1 2 2 2 2 1 3 3 5 8 11 12 10 8 7 7 7 7 7 5 6 6 7 6 5 5 4 5 4 3 5 7 6 7 6 7 6 5 4 5 3 3 3 3 4 5
3 3 2 1 2 2 2 2 1 1 2 4 7 10 10 10 9 7 7 7 7 7 5 5 4 6 6 5 4 3 2 2 3 3 6 6 3 2 3 3 3 3 3 3 2 2 4 6 7
4 3 2 2 2 2 2 2 2 1 3 4 7 9 9 8 7 7 7 8 8 8 6 4 4 4 5 5 3 4 2 2 4 3 4 6 3 2 2 3 3 3 3 2 3 3 5 5 6
2 2 2 3 3 4 4 4 4 4 5 6 6 7 8 8 7 7 7 7 7 9 8 6 5 4 5 5 3 3 3 3 4 3 3 5 4 3 3 3 3 2 3 3 3 4 4 4 4
5 5 4 5 5 4 4 6 7 6 7 7 8 8 7 8 7 6 7 7 7 7 8 6 5 4 5 5 4 3 3 4 3 2 3 5 5 4 3 3 2 2 5 5 4 5 4 4 5
7 6 6 6 7 7 7 6 6 7 8 7 8 8 8 7 7 7 7 7 7 8 8 7 6 5 5 4 3 3 3 4 3 3 3 3 5 6 4 2 2 4 5 4 3 3 3 4 4
8 8 7 6 8 8 8 6 5 7 8 8 8 9 9 8 8 7 7 7 7 8 8 8 6 5 5 5 4 3 3 3 3 3 2 2 4 5 5 2 2 4 4 2 3 3 3 3 3
6 6 6 6 6 7 7 7 7 9 9 9 9 9 10 10 9 8 7 8 7 8 8 8 8 6 5 3 4 3 2 2 3 2 3 2 3 5 4 2 3 4 3 3 3 3 3 2 1
8 8 7 6 4 7 7 8 8 10 9 9 8 9 10 10 10 9 9 8 8 7 7 8 8 7 5 3 3 3 2 2 2 2 3 3 3 3 4 3 3 3 3 2 2 2 2 1 2
11 9 8 5 5 6 7 8 8 8 9 8 8 8 9 9 11 11 10 9 9 9 8 8 7 7 6 4 3 3 3 2 2 1 2 3 3 3 3 3 3 3 2 2 2 2 1 1 1
10 9 7 7 7 8 8 8 8 8 9 8 8 6 7 9 10 10 11 10 9 8 8 7 7 8 7 6 3 3 3 2 2 2 1 2 3 2 2 2 3 3 3 2 2 2 2 1 1
9 8 8 9 9 7 7 6 6 7 8 9 8 7 6 6 7 8 9 9 9 8 7 8 8 8 8 7 6 5 4 3 3 3 2 2 2 2 2 2 2 3 2 2 2 3 2 1 1
7 8 9 11 10 10 10 7 4 6 7 7 7 7 6 6 7 8 8 9 9 8 7 7 7 8 8 8 7 6 4 4 3 3 3 3 2 2 2 2 2 2 2 2 2 2 2 1 1
8 9 10 11 9 10 10 7 3 3 4 5 5 6 5 5 7 7 8 8 7 6 6 6 6 6 7 8 8 7 6 5 4 3 3 3 2 2 3 3 2 2 2 3 2 2 3 2 1
9 8 5 5 6 6 7 6 2 3 3 3 4 4 5 5 5 6 8 8 7 7 6 6 7 6 7 8 8 8 7 6 6 5 4 4 3 2 3 2 3 2 2 3 2 2 2 2 2
8 8 6 4 5 6 6 4 3 5 6 5 4 5 4 5 5 4 5 6 6 7 7 6 7 7 7 7 7 7 7 5 4 5 4 4 3 3 3 3 3 2 2 2 2 2 2 2 2
8 7 8 8 10 9 5 3 2 4 5 5 5 5 4 4 5 5 5 5 5 5 6 6 7 6 7 7 6 6 6 6 5 5 4 3 3 3 4 3 3 2 2 2 2 2 2 2 2
10 9 6 6 6 7 5 4 2 4 5 5 5 5 5 4 4 5 5 5 4 4 4 4 4 6 6 6 6 5 5 6 5 5 5 5 4 4 4 4 4 4 3 3 3 2 2 3 3
8 9 7 6 6 6 5 2 1 3 4 4 5 6 5 4 4 4 4 4 4 3 3 3 4 4 5 5 5 5 5 5 5 5 5 5 4 4 4 4 4 4 4 3 3 4 3 3 3
8 9 7 6 7 6 5 2 2 4 5 6 5 5 4 3 3 4 4 3 4 3 3 3 2 3 3 4 4 5 5 5 5 5 5 5 5 5 4 4 3 3 3 3 3 4 3 3 3
Wind_Direction
266 253 249 260 256 228 62 68 73 62 57 55 49 54 60 52 56 93 131 101 95 96 95 81 72 69 67 68 68 69 71 70 71 71 71 70 68 67 64 60 63 72 78 78 73 70 66 62 60
270 273 267 243 262 87 75 77 77 73 76 71 60 62 69 68 76 99 110 99 102 99 95 85 78 73 71 72 72 72 72 72 72 71 71 70 70 69 66 63 65 72 76 74 71 68 65 62 59
261 266 268 257 10 67 94 88 92 91 80 76 77 64 62 75 88 109 116 118 106 98 97 92 84 77 75 76 76 75 74 73 73 72 72 71 70 69 68 68 68 72 74 72 69 67 65 61 58
259 260 251 297 67 69 99 106 114 110 90 73 83 82 79 73 93 110 121 123 109 106 103 100 91 84 79 78 77 77 75 75 74 74 73 72 72 71 70 69 69 71 73 71 68 66 62 60 58
240 254 236 103 79 85 90 91 98 98 97 91 87 94 93 85 97 109 117 113 110 111 111 109 101 93 87 82 78 77 77 75 76 76 74 74 74 74 73 72 72 71 69 68 67 64 61 60 59
261 251 246 110 99 96 96 104 97 96 98 102 103 104 102 108 109 117 118 112 111 115 117 118 114 106 98 91 85 81 80 80 78 78 77 77 78 79 77 75 74 72 69 67 66 64 61 60 59
271 278 247 122 116 112 96 93 99 95 96 97 105 106 120 125 126 131 123 115 112 117 125 131 132 121 111 104 98 93 91 90 87 87 87 87 87 86 83 79 77 76 73 70 68 65 65 65 61
280 288 281 118 121 108 98 89 84 89 86 93 98 111 132 136 141 134 125 120 117 119 126 128 133 135 131 122 115 111 106 106 105 104 102 101 105 100 93 87 84 82 79 75 71 69 68 69 65
269 274 289 55 98 105 112 107 103 99 92 92 84 89 120 135 141 137 132 123 117 121 126 125 127 131 131 128 126 131 126 127 132 137 128 121 120 112 99 94 94 89 85 79 72 69 71 72 70
214 246 71 310 94 94 102 100 123 130 122 112 107 107 123 137 149 151 154 148 137 136 126 126 132 127 122 123 137 146 141 143 151 140 134 124 99 103 102 110 105 102 94 85 73 68 72 76 75
169 186 178 214 98 105 113 93 108 139 142 146 137 135 140 150 158 161 158 146 130 121 121 127 127 123 126 127 135 139 135 143 139 116 116 101 102 111 115 124 115 112 102 85 67 63 56 69 66
202 211 206 168 133 159 165 154 176 125 105 123 137 145 151 161 164 164 154 138 130 124 122 123 129 127 126 121 117 120 114 119 99 84 102 99 90 91 102 110 109 103 91 81 67 57 54 59 60
207 223 195 183 190 203 178 179 192 186 127 134 139 143 156 162 166 162 150 144 141 138 139 136 137 128 121 114 127 117 92 93 105 78 87 101 95 92 91 96 90 86 81 74 52 50 55 55 50
207 229 225 209 203 203 204 205 209 205 169 169 159 157 159 166 173 163 154 152 149 148 150 146 147 133 126 119 108 104 104 93 93 87 88 103 102 94 79 83 80 79 80 71 66 65 62 58 56
214 222 230 225 217 211 217 228 212 199 188 185 178 167 168 171 170 168 163 153 152 149 144 144 144 137 121 110 113 105 99 100 88 81 64 88 97 97 93 82 74 65 68 63 60 59 58 63 63
227 225 229 218 215 213 223 237 198 188 193 191 184 169 173 176 178 175 164 155 151 144 142 147 153 142 126 123 125 113 108 103 97 94 62 72 93 95 89 84 75 74 69 61 60 64 56 56 59
229 231 227 220 218 216 218 234 190 191 199 197 191 179 176 178 182 177 169 158 154 151 151 156 149 143 136 136 129 119 119 109 105 99 85 62 93 103 96 94 84 80 79 68 61 67 70 62 59
243 246 248 239 215 223 225 230 204 199 206 206 193 186 183 184 183 176 168 160 157 155 156 157 152 150 145 142 130 117 105 117 113 106 100 73 70 96 104 107 91 84 85 74 68 69 58 63 58
272 266 267 261 236 240 239 234 220 203 205 209 199 193 189 185 180 172 167 163 160 161 160 158 156 153 147 144 137 136 144 143 131 124 121 114 92 88 92 95 87 91 96 98 89 85 67 54 55
260 262 265 266 247 255 253 251 232 206 210 205 204 201 194 185 176 170 167 169 171 171 170 163 158 155 149 145 150 156 148 141 132 124 107 126 119 106 113 121 125 115 110 97 100 100 76 5 51
258 262 270 277 275 262 259 254 229 206 204 200 205 201 197 187 176 171 172 172 170 172 171 169 164 157 155 153 145 137 123 130 142 150 154 141 131 128 121 127 136 145 144 146 147 137 133 208 310
261 264 270 269 268 265 250 261 220 196 195 194 194 189 189 182 172 167 168 169 169 171 171 170 168 163 161 157 157 163 163 174 186 170 172 172 161 150 156 164 149 155 149 150 170 158 158 157 272
271 277 267 267 268 270 262 258 231 192 196 184 174 172 175 176 170 169 169 168 168 169 170 173 173 169 166 167 165 173 172 181 179 168 169 176 180 165 160 163 163 164 163 168 165 144 156 169 189
265 268 261 254 256 256 252 252 237 201 182 166 162 157 159 159 164 166 162 157 164 160 159 172 176 176 171 171 171 176 175 178 176 176 175 185 183 186 180 169 165 173 179 175 174 172 176 187 183
244 253 259 242 231 240 238 237 206 146 132 122 138 142 138 136 146 154 155 156 159 162 167 175 180 182 176 178 182 180 181 185 186 182 188 186 182 183 196 176 180 197 191 171 171 177 191 186 188
246 243 252 268 270 275 257 226 160 132 124 116 107 114 115 120 127 127 132 144 156 165 170 178 184 186 183 185 191 185 183 187 184 185 182 184 184 181 178 174 187 199 180 172 166 171 188 193 205
255 247 258 271 278 276 254 224 162 134 130 134 128 119 123 122 128 134 128 129 142 157 169 182 186 190 188 188 193 189 184 181 181 186 183 177 174 176 176 180 187 198 191 192 175 186 200 194 204
244 266 268 260 276 274 269 251 218 166 150 138 124 118 118 120 119 122 124 130 134 146 163 169 174 186 186 186 192 188 187 184 181 176 180 178 175 176 183 187 189 194 197 200 190 199 218 207 202
236 242 255 263 259 269 278 275 96 108 106 99 100 101 105 110 112 113 110 122 131 133 147 159 174 178 184 187 189 189 189 187 184 182 182 178 177 175 185 194 199 195 196 200 193 196 204 211 210
253 254 259 267 275 271 269 264 76 77 83 87 82 85 94 103 110 117 120 126 131 137 146 156 175 179 182 186 187 188 186 187 187 188 185 181 182 184 191 193 201 200 198 199 198 206 201 200 207
Height
1487 1487 1487 1489 1490 1492 1493 1489 1486 1487 1488 1489 1489 1489 1493 1497 1502 1513 1513 1511 1511 1510 1508 1508 1507 1506 1507 1507 1507 1507 1507 1508 1508 1508 1508 1508 1507 1507 1506 1504 1499 1497 1500 1504 1507 1508 1508 1508 1509
1487 1488 1490 1489 1491 1499 1498 1489 1489 1489 1490 1491 1491 1493 1495 1501 1505 1509 1511 1512 1512 1511 1510 1509 1509 1509 1509 1509 1509 1509 1509 1510 1510 1510 1510 1509 1509 1509 1508 1506 1503 1501 1503 1506 1508 1509 1509 1510 1510
1488 1489 1490 1488 1490 1496 1496 1489 1489 1490 1491 1492 1493 1496 1500 1505 1508 1510 1512 1513 1513 1512 1511 1511 1511 1511 1511 1511 1511 1511 1511 1512 1512 1512 1512 1511 1511 1511 1510 1509 1507 1507 1507 1509 1510 1511 1511 1511 1511
1490 1491 1489 1489 1493 1489 1487 1487 1488 1490 1492 1493 1494 1499 1504 1508 1509 1511 1512 1514 1514 1513 1513 1513 1512 1512 1512 1512 1512 1513 1513 1514 1514 1514 1514 1514 1513 1513 1512 1512 1511 1510 1511 1511 1512 1512 1513 1513 1513
1491 1490 1490 1493 1491 1487 1484 1486 1488 1490 1492 1494 1496 1501 1507 1510 1511 1512 1513 1515 1515 1514 1514 1514 1514 1514 1514 1514 1514 1515 1515 1515 1516 1516 1516 1516 1515 1515 1514 1514 1514 1514 1514 1514 1514 1514 1514 1514 1514
1491 1488 1494 1498 1493 1487 1486 1488 1489 1491 1493 1496 1499 1502 1508 1511 1512 1513 1514 1515 1516 1516 1515 1516 1516 1516 1516 1516 1516 1516 1517 1517 1517 1518 1518 1518 1517 1517 1517 1516 1516 1516 1516 1516 1516 1516 1516 1516 1516
1491 1490 1493 1493 1493 1490 1488 1488 1490 1492 1494 1497 1499 1503 1508 1511 1513 1514 1515 1516 1517 1517 1517 1517 1517 1518 1518 1518 1518 1519 1519 1519 1520 1520 1520 1520 1519 1519 1519 1519 1518 1518 1518 1518 1518 1518 1518 1518 1518
1490 1489 1491 1491 1493 1492 1489 1490 1492 1494 1496 1498 1500 1502 1507 1511 1512 1514 1516 1517 1517 1518 1519 1519 1519 1519 1520 1520 1520 1521 1521 1521 1522 1522 1522 1522 1521 1521 1521 1521 1521 1521 1521 1521 1521 1521 1520 1521 1521
1489 1493 1496 1493 1492 1491 1490 1491 1494 1495 1497 1499 1501 1503 1506 1510 1512 1514 1516 1517 1518 1519 1520 1520 1521 1521 1522 1522 1522 1523 1523 1523 1524 1524 1524 1524 1524 1524 1523 1523 1523 1523 1523 1523 1523 1523 1523 1523 1523
1488 1495 1493 1489 1488 1489 1490 1492 1494 1496 1498 1500 1503 1505 1508 1510 1512 1514 1515 1516 1518 1519 1521 1521 1522 1523 1523 1524 1524 1524 1525 1525 1525 1526 1526 1526 1526 1526 1526 1525 1525 1525 1525 1525 1525 1525 1525 1525 1525
1487 1491 1489 1488 1488 1490 1492 1494 1495 1496 1499 1500 1503 1505 1508 1510 1512 1513 1515 1516 1518 1519 1521 1522 1523 1524 1524 1524 1525 1526 1526 1526 1527 1527 1527 1527 1528 1528 1528 1527 1527 1527 1527 1527 1527 1527 1527 1527 1527
1487 1487 1487 1488 1490 1491 1493 1494 1496 1497 1499 1500 1502 1504 1506 1509 1511 1513 1514 1516 1518 1519 1521 1522 1523 1524 1525 1525 1526 1527 1527 1528 1528 1528 1529 1529 1529 1529 1529 1529 1529 1529 1529 1529 1529 1529 1529 1529 1529
1487 1487 1487 1489 1490 1491 1493 1494 1496 1497 1499 1500 1502 1504 1506 1508 1510 1512 1514 1515 1517 1518 1520 1522 1523 1524 1525 1525 1527 1527 1528 1528 1529 1529 1529 1529 1530 1530 1530 1530 1530 1530 1530 1530 1531 1531 1531 1530 1530
1486 1487 1487 1488 1490 1491 1493 1494 1496 1497 1498 1500 1501 1503 1505 1507 1509 1511 1513 1514 1516 1518 1519 1521 1523 1524 1525 1525 1526 1527 1528 1528 1529 1530 1530 1530 1530 1531 1531 1531 1531 1531 1532 1532 1532 1532 1532 1532 1531
1486 1488 1488 1488 1488 1490 1492 1494 1493 1495 1496 1498 1500 1502 1504 1506 1508 1510 1511 1513 1515 1517 1518 1520 1522 1524 1524 1525 1526 1527 1528 1529 1529 1530 1531 1531 1531 1531 1531 1532 1532 1533 1533 1533 1533 1533 1533 1532 1532
1485 1488 1493 1487 1486 1488 1493 1497 1490 1492 1494 1495 1498 1500 1503 1505 1506 1508 1510 1512 1514 1516 1517 1519 1521 1523 1524 1525 1526 1527 1528 1529 1529 1530 1531 1531 1531 1532 1532 1532 1533 1533 1533 1533 1533 1533 1533 1533 1533
1487 1492 1491 1487 1482 1483 1487 1491 1487 1489 1491 1493 1495 1497 1500 1502 1505 1507 1509 1510 1512 1514 1516 1518 1520 1522 1523 1524 1526 1527 1528 1528 1529 1530 1531 1531 1531 1532 1532 1532 1533 1533 1533 1533 1534 1534 1534 1534 1534
1492 1489 1488 1485 1480 1481 1485 1486 1484 1486 1487 1489 1491 1493 1496 1499 1502 1504 1507 1509 1511 1513 1515 1516 1518 1520 1522 1524 1525 1526 1527 1528 1529 1530 1530 1531 1531 1532 1532 1532 1533 1533 1533 1533 1534 1534 1534 1534 1534
1483 1485 1486 1482 1477 1480 1482 1482 1480 1481 1483 1485 1487 1489 1492 1495 1498 1501 1504 1507 1509 1511 1513 1515 1517 1518 1520 1522 1523 1525 1526 1527 1528 1529 1530 1530 1531 1531 1531 1532 1532 1533 1533 1533 1534 1534 1534 1534 1534
1482 1485 1485 1480 1476 1478 1480 1479 1475 1476 1479 1480 1483 1485 1488 1491 1495 1498 1501 1504 1506 1509 1511 1513 1515 1517 1518 1520 1522 1523 1525 1526 1527 1528 1529 1529 1530 1530 1531 1531 1532 1532 1532 1533 1533 1533 1534 1534 1534
1482 1483 1483 1483 1477 1475 1479 1481 1474 1472 1474 1477 1479 1482 1485 1488 1491 1494 1498 1501 1504 1506 1508 1510 1512 1514 1516 1518 1520 1522 1523 1524 1525 1526 1527 1528 1529 1529 1530 1531 1531 1531 1532 1532 1532 1533 1533 1533 1534
1484 1476 1477 1479 1484 1484 1480 1491 1476 1470 1471 1472 1476 1479 1482 1485 1488 1491 1494 1497 1500 1503 1506 1508 1510 1512 1514 1516 1517 1519 1520 1521 1523 1524 1525 1526 1527 1528 1529 1529 1530 1530 1530 1531 1531 1532 1532 1533 1533
1478 1474 1476 1477 1481 1483 1477 1484 1479 1468 1472 1471 1473 1476 1479 1482 1485 1488 1491 1494 1497 1500 1503 1506 1508 1510 1512 1513 1515 1517 1518 1520 1521 1522 1524 1525 1525 1526 1527 1527 1528 1529 1529 1529 1530 1531 1531 1531 1532
1474 1476 1475 1475 1480 1492 1478 1482 1483 1470 1468 1469 1471 1474 1477 1480 1483 1486 1489 1492 1495 1498 1500 1503 1505 1508 1509 1511 1513 1514 1516 1517 1519 1520 1521 1522 1523 1524 1525 1526 1526 1527 1527 1528 1528 1529 1529 1530 1530
1475 1484 1494 1495 1494 1488 1470 1475 1477 1465 1464 1466 1469 1473 1476 1479 1481 1484 1486 1489 1492 1495 1497 1500 1502 1505 1507 1509 1510 1512 1513 1515 1516 1518 1519 1520 1521 1522 1523 1524 1524 1525 1526 1526 1526 1527 1527 1528 1528
1475 1479 1496 1503 1497 1484 1470 1473 1470 1461 1463 1466 1469 1472 1475 1477 1480 1482 1484 1487 1489 1492 1494 1497 1499 1501 1504 1506 1508 1509 1511 1513 1514 1515 1517 1518 1519 1519 1520 1521 1522 1523 1524 1524 1524 1525 1525 1526 1526
1476 1476 1474 1483 1484 1487 1476 1469 1465 1461 1464 1466 1469 1472 1475 1477 1479 1481 1483 1485 1487 1490 1492 1494 1496 1499 1501 1503 1505 1507 1508 1510 1511 1513 1514 1515 1516 1517 1518 1519 1520 1520 1521 1521 1522 1522 1523 1524 1524
1471 1472 1477 1484 1493 1494 1481 1476 1477 1469 1466 1467 1469 1472 1475 1477 1479 1481 1482 1484 1486 1488 1490 1492 1494 1496 1498 1500 1502 1504 1505 1507 1508 1510 1511 1512 1513 1514 1515 1516 1517 1518 1518 1519 1520 1520 1521 1521 1521
1471 1473 1475 1478 1480 1492 1495 1486 1463 1465 1466 1467 1470 1473 1476 1478 1479 1480 1482 1484 1485 1487 1488 1490 1492 1493 1495 1497 1499 1501 1502 1504 1505 1506 1508 1509 1510 1511 1512 1513 1514 1515 1516 1516 1517 1517 1518 1518 1518
1466 1469 1474 1485 1484 1480 1487 1485 1462 1464 1466 1469 1472 1475 1476 1478 1480 1481 1482 1483 1484 1485 1487 1488 1490 1491 1492 1494 1496 1498 1499 1501 1502 1503 1504 1506 1507 1508 1509 1510 1511 1511 1512 1513 1514 1514 1515 1515 1515